Weather History for Hillsdale, MI

Change the Weather History Date:

Saturday, January 12, 2013

  Actual Average Record
Temperature  
Mean Temperature 53 °F -  
Max Temperature 60 °F 29 °F 60 °F (2013)
Min Temperature 46 °F 11 °F -17 °F (1984)
Degree Days  
Heating Degree Days 12    
Growing Degree Days 3 (Base 50)    
Moisture  
Dew Point 48 °F    
Average Humidity 85    
Maximum Humidity 98    
Minimum Humidity 64    
Precipitation  
Precipitation 0.00 in - - ()
Sea Level Pressure  
Sea Level Pressure 29.88 in    
Wind  
Wind Speed 8 mph (SSW)    
Max Wind Speed 15 mph    
Max Gust Speed 18 mph    
Visibility 9 miles    
Events Rain    
Averages and records for this station are not official NWS values.
T = Trace of Precipitation, MM = Missing Value Source: NWS Daily Summary

Daily Weather History Graph

Daily Weather History Graph

Search for Another Location

Airport:

Trip Planner

Search our weather history database for the weather conditions in past years. The results will help you decide how hot, cold, wet, or windy it might be!

Date:

Astronomy

Jan. 12, 2013 Rise Set
Actual Time 8:04 AM EST 5:29 PM EST
Civil Twilight 7:33 AM EST 6:00 PM EST
Nautical Twilight 6:59 AM EST 6:34 PM EST
Astronomical Twilight 6:25 AM EST 7:08 PM EST
Moon 8:21 AM EST (1/12) 6:59 PM EST (1/12)
Length of Visible Light 10h 26m
Length of Day
9h 24m
New Moon, 1% of the Moon is Illuminated
Jan 12
New Moon
Jan 18
First Quarter
Jan 26
Full
Feb 3
Last Quarter
Feb 10
New

Hourly Weather History & Observations

Time (EST) Temp. Dew Point Humidity Pressure Visibility Wind Dir Wind Speed Gust Speed Precip Events Conditions
12:15 AM 47.7 °F 46.4 °F 95% 29.83 in 7.0 mi South 8.1 mph - N/A   Clear
12:34 AM 47.5 °F 46.2 °F 95% 29.83 in 7.0 mi South 6.9 mph - N/A   Clear
12:55 AM 46.9 °F 46.0 °F 97% 29.83 in 7.0 mi SSW 5.8 mph - N/A   Clear
1:14 AM 46.6 °F 45.7 °F 97% 29.83 in 5.0 mi South 5.8 mph - N/A   Clear
1:35 AM 46.8 °F 45.9 °F 97% 29.83 in 5.0 mi South 6.9 mph - N/A   Clear
1:55 AM 46.8 °F 46.0 °F 97% 29.83 in 5.0 mi SSW 6.9 mph - N/A   Clear
2:14 AM 46.8 °F 46.0 °F 97% 29.83 in 7.0 mi SSW 5.8 mph - N/A   Clear
2:35 AM 47.3 °F 46.2 °F 96% 29.84 in 7.0 mi SSW 8.1 mph - N/A   Clear
2:55 AM 47.7 °F 46.2 °F 95% 29.85 in 10.0 mi SW 8.1 mph - N/A   Clear
3:15 AM 48.6 °F 46.6 °F 93% 29.85 in 10.0 mi SW 9.2 mph - N/A   Clear
3:35 AM 49.6 °F 46.6 °F 89% 29.85 in 10.0 mi SW 9.2 mph - N/A   Clear
3:55 AM 50.5 °F 46.6 °F 86% 29.84 in 10.0 mi SW 12.7 mph - N/A   Clear
4:14 AM 50.7 °F 46.2 °F 85% 29.84 in 10.0 mi SW 11.5 mph 17.3 mph N/A   Clear
4:35 AM 50.7 °F 45.9 °F 83% 29.83 in 10.0 mi SW 11.5 mph - N/A   Clear
4:54 AM 51.1 °F 45.7 °F 82% 29.83 in 10.0 mi SSW 11.5 mph 17.3 mph N/A   Clear
5:15 AM 50.5 °F 45.7 °F 83% 29.83 in 10.0 mi SSW 9.2 mph - N/A   Clear
5:35 AM 50.4 °F 45.7 °F 84% 29.84 in 10.0 mi SSW 10.4 mph - N/A   Clear
5:54 AM 50.2 °F 45.9 °F 85% 29.83 in 10.0 mi SSW 11.5 mph - N/A   Clear
6:15 AM 49.8 °F 45.7 °F 86% 29.84 in 10.0 mi SSW 8.1 mph - N/A   Clear
6:35 AM 49.5 °F 45.7 °F 87% 29.85 in 10.0 mi SSW 9.2 mph 16.1 mph N/A   Clear
6:55 AM 49.1 °F 45.7 °F 88% 29.86 in 10.0 mi SSW 8.1 mph - N/A   Clear
7:15 AM 48.6 °F 45.5 °F 89% 29.86 in 10.0 mi SSW 8.1 mph - N/A   Clear
7:35 AM 48.4 °F 45.5 °F 90% 29.86 in 10.0 mi SSW 8.1 mph - N/A   Clear
7:55 AM 48.6 °F 45.7 °F 90% 29.88 in 10.0 mi SW 9.2 mph - N/A   Clear
8:14 AM 49.3 °F 46.0 °F 89% 29.89 in 10.0 mi SW 10.4 mph - N/A   Clear
8:35 AM 50.0 °F 46.4 °F 87% 29.91 in 10.0 mi SW 10.4 mph - N/A   Clear
8:55 AM 50.4 °F 46.6 °F 87% 29.91 in 10.0 mi SW 9.2 mph - N/A   Clear
9:15 AM 50.5 °F 46.8 °F 87% 29.91 in 10.0 mi SW 8.1 mph - N/A   Clear
9:35 AM 51.1 °F 47.1 °F 86% 29.90 in 10.0 mi SW 9.2 mph - N/A   Clear
9:54 AM 51.4 °F 47.3 °F 86% 29.92 in 10.0 mi SW 10.4 mph - N/A   Clear
10:15 AM 52.3 °F 47.8 °F 85% 29.92 in 10.0 mi SW 10.4 mph - N/A   Clear
10:35 AM 53.8 °F 48.4 °F 82% 29.92 in 10.0 mi SW 9.2 mph - N/A   Clear
10:54 AM 54.0 °F 48.6 °F 82% 29.92 in 10.0 mi SW 9.2 mph - N/A   Clear
11:15 AM 54.7 °F 48.9 °F 81% 29.92 in 10.0 mi SW 8.1 mph - N/A   Clear
11:35 AM 55.0 °F 48.9 °F 80% 29.91 in 10.0 mi SSW 8.1 mph - N/A   Clear
11:54 AM 55.9 °F 49.5 °F 79% 29.91 in 10.0 mi SW 9.2 mph - N/A   Clear
12:15 PM 55.9 °F 49.6 °F 79% 29.91 in 10.0 mi SW 9.2 mph - N/A   Clear
12:35 PM 58.1 °F 49.5 °F 73% 29.90 in 10.0 mi WSW 9.2 mph - N/A   Clear
12:54 PM 57.6 °F 48.6 °F 72% 29.90 in 10.0 mi SW 9.2 mph - N/A   Clear
1:15 PM 57.6 °F 48.6 °F 72% 29.91 in 10.0 mi WSW 10.4 mph - N/A   Clear
1:34 PM 57.6 °F 48.7 °F 72% 29.90 in 10.0 mi WSW 9.2 mph - N/A   Clear
1:55 PM 58.3 °F 48.6 °F 70% 29.91 in 10.0 mi WSW 11.5 mph 16.1 mph N/A   Clear
2:14 PM 58.6 °F 48.6 °F 69% 29.92 in 10.0 mi SW 15.0 mph - N/A   Clear
2:35 PM 59.4 °F 48.4 °F 67% 29.92 in 10.0 mi SW 10.4 mph - N/A   Clear
2:55 PM 60.1 °F 47.7 °F 64% 29.93 in 10.0 mi SW 8.1 mph - N/A   Clear
3:14 PM 59.4 °F 47.7 °F 65% 29.93 in 10.0 mi SSW 4.6 mph - N/A   Clear
3:35 PM 58.8 °F 47.7 °F 66% 29.92 in 10.0 mi SSW 4.6 mph - N/A   Clear
3:55 PM 58.3 °F 48.7 °F 71% 29.93 in 10.0 mi SSW 4.6 mph - N/A   Clear
4:14 PM 57.6 °F 48.9 °F 73% 29.93 in 10.0 mi SSW 5.8 mph - N/A   Clear
4:35 PM 57.2 °F 48.6 °F 73% 29.93 in 10.0 mi South 4.6 mph - N/A   Clear
4:55 PM 56.7 °F 48.7 °F 75% 29.95 in 10.0 mi SSW 5.8 mph - N/A   Clear
5:15 PM 55.9 °F 49.1 °F 78% 29.93 in 10.0 mi South 4.6 mph - N/A   Clear
5:35 PM 55.4 °F 50.2 °F 83% 29.93 in 10.0 mi South 4.6 mph - N/A   Clear
5:54 PM 54.9 °F 50.2 °F 84% 29.92 in 10.0 mi Calm Calm - N/A   Clear
6:15 PM 53.4 °F 49.8 °F 88% 29.92 in 10.0 mi Calm Calm - N/A   Clear
6:35 PM 53.2 °F 50.2 °F 89% 29.93 in 10.0 mi SSW 4.6 mph - N/A   Clear
7:15 PM 52.9 °F 49.8 °F 89% 29.92 in 7.0 mi Calm Calm - N/A   Clear
7:35 PM 52.5 °F 50.4 °F 92% 29.90 in 7.0 mi Calm Calm - N/A   Clear
8:15 PM 50.5 °F 49.5 °F 96% 29.91 in 5.0 mi Calm Calm - N/A   Clear
8:54 PM 49.1 °F 48.0 °F 96% 29.89 in 7.0 mi Calm Calm - N/A   Scattered Clouds
9:15 PM 48.4 °F 47.5 °F 97% 29.89 in 5.0 mi Calm Calm - N/A   Mostly Cloudy
9:35 PM 49.1 °F 48.4 °F 97% 29.89 in 5.0 mi Calm Calm - N/A   Overcast
9:55 PM 48.6 °F 48.0 °F 98% 29.87 in 2.5 mi Calm Calm - N/A   Mostly Cloudy
10:14 PM 48.7 °F 48.2 °F 98% 29.86 in 3.0 mi Calm Calm - N/A   Overcast
10:35 PM 48.4 °F 47.8 °F 98% 29.86 in 2.5 mi Calm Calm - N/A Rain Light Rain
10:55 PM 48.9 °F 48.4 °F 98% 29.85 in 2.5 mi NE 3.5 mph - N/A Rain Rain
11:34 PM 48.6 °F 47.7 °F 97% 29.81 in 7.0 mi NNE 9.2 mph - N/A Rain Rain
11:55 PM 47.3 °F 46.0 °F 95% 29.79 in 10.0 mi NNE 11.5 mph 18.4 mph N/A Rain Light Rain